Back to catalog

COSMOS 2499 DEB

AlivePO
NORAD 59373·DEBRIS·🇷🇺 Russia

Launched May 23, 2014 from Plesetsk Cosmodrome

Loading…

Next Passes (next 24 hours)

TLE

StaleSource: Space-Track

Epoch: Aug 31, 2026, 03:21 UTC

1 59373U 14028BT  26243.13964651  .00006243  00000-0  14216-1 0  9994
2 59373  82.5068 175.2392 0289026  33.7505 328.1647 13.11684805157435

Track COSMOS 2499 DEB in real time with AllMySat

Download on the App Store